RH
22 19 21 25 26 24 27 26 36 47 47 48 53 57 59 61 68 65 65 73 78 81 82 79 76 72 66 64 64 59 49 39 29 18 10 8 10 12 14 16 17 17 17 17 17 17 17 21 22
23 24 27 25 23 26 27 44 55 50 56 58 54 53 58 63 59 64 66 72 75 76 83 79 79 71 72 71 67 61 50 40 28 17 11 9 12 15 17 18 17 18 18 19 19 20 20 22 26
23 26 25 21 22 27 33 58 49 52 52 50 50 48 49 61 64 68 69 75 78 75 79 80 81 76 78 78 71 62 47 37 27 17 11 13 15 18 18 19 19 20 22 22 23 25 26 29 28
24 24 21 21 25 26 34 45 53 58 57 59 56 53 55 59 60 64 68 76 80 80 81 85 84 84 88 82 74 59 45 33 22 15 12 17 19 19 20 21 23 24 25 26 28 31 33 34 33
29 27 23 22 24 33 36 49 47 58 55 65 61 58 62 57 59 63 74 78 85 84 83 87 87 91 88 82 74 58 45 29 20 15 16 20 21 22 23 26 26 26 28 30 34 36 37 37 38
31 26 26 26 32 36 47 59 52 51 51 54 54 62 66 58 58 71 88 91 96 90 87 89 93 89 87 85 70 58 40 26 17 16 20 22 24 27 28 26 28 30 33 35 37 41 43 45 44
32 31 30 27 28 33 55 57 65 64 56 57 54 58 62 69 61 67 85 98 99 95 92 95 96 93 88 81 64 53 31 24 24 24 25 26 29 27 26 28 29 33 36 40 43 46 49 49 47
33 35 31 27 33 45 65 63 64 77 69 65 58 65 68 78 73 69 79 98 98 98 95 91 92 84 77 66 51 39 28 20 20 24 26 26 27 28 28 30 33 39 43 46 46 51 54 54 54
33 35 28 31 42 58 62 67 67 70 78 68 58 54 64 81 86 72 89 95 100 99 97 94 91 89 75 58 43 31 25 21 23 23 27 29 33 37 36 38 42 45 48 52 59 62 58 58 56
34 33 30 37 55 53 59 63 63 59 68 71 64 68 77 78 77 81 86 92 96 94 89 89 84 73 57 42 28 20 14 17 21 26 31 36 43 47 48 52 56 59 63 67 66 66 66 65 61
31 30 35 41 56 48 46 50 52 55 65 69 80 82 87 71 83 81 79 81 70 68 62 75 72 55 37 28 22 17 19 22 24 31 42 49 54 56 58 69 69 72 68 71 70 73 73 69 65
30 35 39 45 52 59 47 49 44 51 52 54 71 71 79 75 78 88 77 66 56 57 53 50 47 38 31 21 19 20 23 28 39 43 52 61 58 60 62 67 69 68 72 73 71 74 71 71 63
34 36 37 45 48 73 58 51 46 53 53 61 72 64 69 77 68 75 72 52 43 40 44 45 40 34 25 26 30 36 40 41 47 50 57 68 60 62 67 66 68 68 69 71 73 63 60 57 49
33 38 41 43 53 63 59 54 50 55 44 43 51 53 53 58 48 51 43 32 33 38 41 45 43 40 43 45 50 59 55 60 55 61 59 61 57 56 57 61 62 64 64 66 59 56 49 45 45
40 40 45 38 45 56 54 59 55 42 44 32 36 33 41 52 45 47 39 36 38 43 46 44 48 51 53 53 59 65 70 62 66 62 55 51 53 54 55 57 59 61 63 60 51 45 42 41 39
41 38 39 36 43 51 45 56 55 51 41 40 42 41 52 52 45 46 42 42 43 46 47 44 50 52 53 55 60 62 63 58 57 55 49 53 51 53 55 60 57 50 45 41 40 41 41 43 40
45 42 38 41 44 45 48 47 39 45 45 42 40 39 43 44 44 44 43 47 52 52 53 50 52 55 60 56 60 64 62 58 56 50 50 50 50 54 57 53 47 44 41 41 45 46 44 36 33
44 44 44 45 43 41 46 43 38 45 41 39 38 38 39 39 40 41 41 42 44 48 52 54 54 55 61 60 63 68 64 51 51 48 48 53 53 50 49 45 44 46 50 52 51 44 41 36 31
50 46 45 42 36 39 45 43 36 40 38 37 37 39 42 40 41 42 42 39 42 45 47 45 55 55 64 59 65 70 58 57 53 52 49 52 48 44 45 47 51 55 56 54 47 41 39 33 30
54 48 47 40 35 34 39 39 36 33 34 44 47 46 44 44 40 43 42 39 41 42 49 55 61 62 64 65 71 68 64 61 52 49 48 46 45 48 52 56 56 58 54 48 43 40 36 32 32
54 53 44 39 29 23 35 36 42 32 31 41 44 40 40 42 42 43 43 40 43 48 55 58 71 63 65 65 68 66 60 53 49 49 45 46 47 51 54 54 57 58 56 48 42 37 35 35 36
48 52 45 40 39 25 33 47 44 43 39 44 48 46 46 47 47 47 47 45 43 53 56 58 59 60 62 64 64 58 53 48 46 44 47 51 54 56 54 58 64 57 53 51 44 37 36 36 36
48 47 44 44 50 50 38 43 43 50 48 47 52 46 47 46 47 47 51 49 53 51 55 56 56 59 59 58 59 53 51 46 45 47 49 52 51 50 56 62 64 57 52 52 39 34 37 40 42
42 39 41 47 48 55 41 46 53 54 47 48 47 43 49 49 53 58 53 51 51 50 50 52 56 56 59 57 54 53 51 46 46 51 56 57 59 59 62 65 62 56 53 39 33 35 38 42 46
38 40 52 55 64 61 53 57 52 45 40 39 34 36 41 48 54 53 48 48 50 48 48 53 53 54 55 51 50 50 46 48 53 59 60 63 63 64 64 66 63 55 36 33 37 41 44 44 47
40 46 63 72 76 59 55 59 44 41 39 35 35 34 33 39 44 41 41 43 43 45 45 47 49 49 47 48 49 50 49 52 55 56 60 65 66 66 63 67 60 45 42 43 42 44 48 51 53
47 47 46 59 63 64 42 29 42 34 36 42 36 27 34 37 35 35 38 41 43 42 44 48 48 46 46 47 49 51 55 58 59 61 62 74 76 65 61 56 64 63 54 47 48 53 54 52 54
34 46 49 48 43 40 28 39 51 46 53 48 34 33 32 32 36 39 40 40 41 43 45 47 47 48 47 48 51 55 61 62 64 65 73 69 71 76 67 53 57 56 52 48 57 59 57 55 54
36 36 36 32 40 50 56 48 42 43 38 42 41 33 34 34 34 33 34 35 37 40 41 44 47 49 50 51 54 57 65 66 69 73 72 78 80 86 64 56 59 63 58 55 60 58 56 54 50
32 34 45 50 35 45 49 38 37 34 32 30 30 32 33 35 34 34 34 34 34 36 38 41 47 51 53 55 56 61 69 71 72 78 76 80 85 81 70 64 62 63 65 61 62 59 62 61 58